Regional Weather Roundup
Issued by NWS Burlington, VT

Home | Current Version | Previous Version | Text Only | Print | Product List | Glossary On
Versions: 1 2 3 4 5 6 7 8 9 10 11 12 13 14 15 16 17 18 19 20 21 22 23 24 25 26 27 28 29 30 31 32 33 34 35 36 37 38 39 40 41 42 43 44 45 46 47 48 49 50
000
ASUS41 KBTV 231410
RWRBTV
VERMONT REGIONAL WEATHER ROUNDUP
NATIONAL WEATHER SERVICE BURLINGTON VT
1000 AM EDT WED AUG 23 2017

NOTE: "FAIR" INDICATES FEW OR NO CLOUDS BELOW 12,000 FEET WITH NO
SIGNIFICANT WEATHER AND/OR OBSTRUCTIONS TO VISIBILITY.

* THESE REPORTS ARE NOT UNDER NWS QUALITY CONTROL AND/OR DO NOT
  REPORT WEATHER SUCH AS PRECIPITATION AND FOG.

VTZ001>019-231500-
_____VERMONT_____


CITY           SKY/WX    TMP DP  RH WIND       PRES   REMARKS
BURLINGTON     PTSUNNY   70  50  49 W8        29.77R
MONTPELIER     MOSUNNY   65  53  65 W12       29.81R
MORRISVILLE    SUNNY     67  48  50 W7        29.77R
ST. JOHNSBURY*   N/A     67  53  61 MISG      29.74R
LYNDONVILLE*   FAIR      65  52  63 SW10G16   29.77R
MIDDLEBURY*    FAIR      68  52  56 W7        29.79S
RUTLAND*       MOSUNNY   67  52  58 W13       29.81R
SPRINGFIELD    MOSUNNY   69  50  50 W10       29.80R
HIGHGATE*      PTSUNNY   65  53  66 SW8G18    29.74R
NEWPORT*       FAIR      66  55  67 SW14      29.75S
BENNINGTON     PTSUNNY   67  56  67 W8        29.84R

_____LAKE CHAMPLAIN_____


CITY           SKY/WX    TMP DP  RH WIND       PRES   REMARKS
BURTON ISLAND*   N/A     68  54  60 W14G20      N/A
COLCHESTER RF*   N/A     66  54  63 W13G18      N/A
DIAMOND ISL*     N/A     68  48  49 SW16G28     N/A

$$

NYZ007-026>031-035-052-083-087-231500-
_____NORTHERN NEW YORK_____


CITY           SKY/WX    TMP DP  RH WIND       PRES   REMARKS
PLATTSBURGH    PTSUNNY   68  52  56 W6G17     29.75R
SARANAC LAKE   CLOUDY    59  52  77 W9G18     29.80R
MASSENA        MOSUNNY   66  54  65 W16G25    29.76S
OGDENSBURG*    FAIR      68  56  65 SW12G18   29.77S
POTSDAM*       MOSUNNY   66  59  77 W14       29.78S
WATERTOWN      MOSUNNY   67  57  70 W16G24    29.81R
FT DRUM        PTSUNNY   65  55  68 W12G18    29.81R
ALBANY         PTSUNNY   70  55  59 NW15G22   29.84R
GLENS FALLS    MOSUNNY   69  53  56 SW7       29.80S

$$
NHZ002-005-011-231500-
_____NEW HAMPSHIRE_____


CITY           SKY/WX    TMP DP  RH WIND       PRES   REMARKS
LEBANON        CLOUDY    70  53  54 CALM      29.77R
KEENE            N/A    N/A N/A N/A MISG        N/A
MT WASHINGTON  FOG       41  41 100 W49G58      N/A  VSB 1/16WCI  27
PLYMOUTH       FAIR      68  51  54 W12G21    29.74R
WHITEFIELD     CLOUDY    68  53  58 W8        29.76R

$$

_____REGIONAL QUEBEC LOCATIONS_____


CITY           SKY/WX    TMP DP  RH WIND       PRES   REMARKS
MONTREAL       PTSUNNY   66  55  68 W23       29.71R
QUEBEC CITY    PTSUNNY   68  57  68 SW22G33   29.60R
SHERBROOKE     PTSUNNY   66  57  72 W16G22    29.70R

_____REGIONAL ONTARIO LOCATIONS_____


CITY           SKY/WX    TMP DP  RH WIND       PRES   REMARKS
OTTAWA         PTSUNNY   64  55  72 W18       29.74R

______KEY______
VSB  - VISIBILITY IN MILES
WCI  - WIND CHILL INDEX
HX   - HEAT INDEX
$$
NNNN



USA.gov is the U.S. government's official web portal to all federal, state and local government web resources and services.